[[{"header":{"parameterUnit":"m.s-1","parameterCategory":2,"la1":30.2991,"la2":30.254,"lo1":-89.0895,"lo2":-89.0444,"dy":0.0017,"dx":0.0017,"nx":28,"ny":28,"refTime":"2025-07-10T09:00:00:Z","depth":"0","parameterNumber":2,"parameterNumberName":"U-component_of_CURRENTS"},"data":[0,0,0,0,0,0,0,0,0,0,0,0,0,0,0,0,0,0,0,0,0,0,0,0,0,0,0,0,0,0,0,0,0,0,0,0,0,0,0,0,0,0,0,0,0,0,0,0,0,0,0,0,0,0,0,0,0,0,0.2639,0.2641,0,0.2862,0.2865,0.2867,0.2926,0.2925,0.2923,0.2922,0.3195,0.3203,0.3211,0,0,0,0,0,0,0,0,0,0,0,0,0,0.248,0.2481,0.2639,0.2642,0.2644,0.2862,0.2865,0.2868,0.2926,0.2925,0.2923,0.2921,0.3192,0.3202,0.3212,0,0,0,0,0,0,0,0,0,0,0,0,0,0.261,0.2482,0.2638,0.27,0.2708,0.2861,0.2865,0.2869,0.2926,0.2924,0.2922,0.2921,0.3188,0.3201,0.3213,0.3332,0,0,0.3252,0.3258,0,0,0,0,0,0,0,0,0.2602,0.2615,0.2688,0.2696,0.2705,0.2864,0.2909,0.3026,0.2927,0.2843,0.2922,0.292,0.3091,0.3111,0.3156,0.3345,0.3356,0.3253,0.3261,0.3267,0.327,0,0,0,0,0,0,0,0.2593,0.2608,0.2727,0.2691,0.2702,0.2791,0.2805,0.2932,0.2976,0.285,0.2855,0.2881,0.3095,0.3144,0.3163,0.336,0.3253,0.3264,0.3272,0.3277,0.3677,0.368,0,0,0,0,0,0,0.2557,0.2598,0.272,0.2734,0.2648,0.2794,0.2811,0.2815,0.2974,0.2996,0.2883,0.2883,0.3123,0.3148,0.3173,0.3326,0.3267,0.3279,0.3286,0.3674,0.3678,0.3681,0,0,0,0,0,0,0.2552,0.2565,0.2711,0.2673,0.2697,0.2798,0.2804,0.282,0.2875,0.2998,0.302,0.2919,0.3123,0.3155,0.3299,0.3337,0.3284,0.3296,0.3671,0.3675,0.3679,0.363,0,0,0,0,0,0,0.2546,0.2561,0.2561,0.2669,0.2698,0.2809,0.2806,0.2826,0.2893,0.2896,0.3038,0.306,0.3124,0.328,0.3312,0.3353,0.3306,0.3667,0.3673,0.3678,0.3628,0.3633,0.3636,0,0,0,0,0,0.254,0.2552,0.2559,0.2575,0.269,0.2811,0.2836,0.2901,0.2897,0.2938,0.3028,0.3056,0.3337,0.3293,0.333,0.3376,0.3664,0.3671,0.3678,0.3626,0.3632,0.3636,0,0,0,0,0,0,0.2497,0.2562,0.2572,0.2604,0.27,0.2821,0.2867,0.2909,0.3015,0.3016,0.311,0.3142,0.3278,0.3348,0.3297,0.351,0.3501,0.3515,0.3449,0.3456,0.346,0.3452,0.3316,0,0,0,0,0,0.2482,0.2495,0.2592,0.2623,0.2664,0.2765,0.2822,0.2872,0.2976,0.3018,0.3107,0.3217,0.3339,0.3408,0.3521,0.3654,0.3643,0.3706,0.371,0.3712,0.3734,0.3729,0.3732,0.3703,0.3703,0.3703,0,0,0.2477,0.2513,0.2523,0.2614,0.2686,0.2775,0.2795,0.2889,0.2966,0.3038,0.3157,0.3241,0.3379,0.3512,0.3579,0.3573,0.3709,0.3721,0.3721,0.3743,0.3736,0.3738,0.3739,0.3708,0.3707,0.3706,0,0,0.2494,0.2504,0.2533,0.2611,0.2718,0.2788,0.2812,0.2934,0.2986,0.3124,0.3183,0.3289,0.3476,0.3569,0.3646,0.3753,0.3728,0.3784,0.3805,0.3798,0.3798,0.3799,0.3737,0.3732,0.3786,0.3786,0.3786,0,0.2488,0.2531,0.2572,0.2641,0.2711,0.2789,0.2873,0.2956,0.3105,0.3156,0.3157,0.3403,0.3508,0.3672,0.3709,0.3761,0.3723,0.3762,0.3795,0.3796,0.3797,0.3734,0.3729,0.3784,0.3784,0.3784,0.3785,0,0.2541,0.2588,0.2623,0.2715,0.2799,0.2885,0.2997,0.3071,0.3128,0.3203,0.3349,0.3474,0.3613,0.3662,0.3734,0.3818,0.3772,0.3786,0.376,0.3795,0.3728,0.3724,0.3782,0.3782,0.3783,0.3783,0,0,0.2505,0.263,0.2644,0.2699,0.2843,0.2918,0.3037,0.317,0.3225,0.3344,0.3427,0.3628,0.365,0.3741,0.3814,0.383,0.3799,0.3813,0.3813,0.371,0.3722,0.3532,0.3509,0.3789,0.379,0.379,0.3649,0,0.2543,0.2655,0.2717,0.2846,0.2924,0.3022,0.3117,0.3237,0.3323,0.3412,0.3529,0.3635,0.3693,0.3739,0.3774,0.3813,0.3796,0.3834,0.3742,0.374,0.3532,0.3502,0.3369,0.322,0.3645,0.3644,0.3644,0,0.2575,0.2653,0.2763,0.2899,0.2938,0.3014,0.3151,0.3251,0.3389,0.3447,0.3556,0.3627,0.3737,0.3742,0.3784,0.3791,0.3763,0.3758,0.3751,0.3598,0.3543,0.3271,0.3196,0.3138,0.3638,0.3638,0.3639,0,0.2522,0.2682,0.2756,0.2811,0.2974,0.3028,0.3114,0.3251,0.3322,0.3452,0.3488,0.3615,0.3658,0.3675,0.369,0.3725,0.3659,0.3701,0.3492,0.3476,0.3364,0.3336,0.3195,0.3686,0.3686,0.3686,0.3687,0,0.2527,0.2594,0.2728,0.2772,0.2862,0.2985,0.3069,0.3166,0.3286,0.3341,0.3481,0.3522,0.3636,0.3631,0.3646,0.3524,0.361,0.3478,0.343,0.3338,0.3311,0.3258,0.3269,0.3681,0.3682,0.3683,0.3684,0,0.2455,0.2542,0.2635,0.2786,0.2832,0.289,0.3034,0.3086,0.3195,0.3267,0.3299,0.3433,0.3407,0.3455,0.3453,0.3418,0.3241,0.3284,0.3134,0.307,0.2818,0.2831,0.2556,0.2494,0.3034,0.3028,0.3024,0,0.2431,0.2465,0.2605,0.2647,0.271,0.2813,0.2873,0.3024,0.3079,0.3192,0.3209,0.3226,0.3218,0.3122,0.3065,0.2972,0.2988,0.2776,0.2845,0.2753,0.2736,0.2688,0.2658,0.2667,0.266,0.2654,0.2649,0,0.239,0.2415,0.2478,0.2554,0.262,0.2698,0.2795,0.2829,0.2969,0.2993,0.2995,0.2988,0.2915,0.2765,0.264,0.2602,0.2633,0.2645,0.262,0.2477,0.2351,0.2284,0.2785,0.2596,0.2602,0.2606,0.2608,0.2611,0.2338,0.2349,0.2402,0.2461,0.2522,0.2553,0.2569,0.264,0.2662,0.2664,0.2739,0.2643,0.2568,0.2383,0.2309,0.2111,0.2203,0.2071,0.2102,0.2066,0.1978,0.231,0.2027,0.2029,0.203,0.2032,0.2033,0,0.2286,0.2285,0.2319,0.2369,0.2367,0.244,0.2487,0.2459,0.2404,0.2407,0.2361,0.2196,0.2028,0.1968,0.1761,0.1627,0.1628,0.1581,0.1564,0.1574,0.1924,0.1885,0.1471,0.1471,0.1471,0.1471,0.1471,0.1472,0.226,0.2239,0.2237,0.2202,0.2221,0.2179,0.2169,0.2117,0.2096,0.1926,0.1804,0.1773,0.1732,0.1556,0.1374,0.1339,0.1299,0.1144,0.1214,0.156,0.1612,0.1662,0.1628,0.1167,0.1167,0.0814,0.0812,0.081]},{"header":{"parameterUnit":"m.s-1","parameterCategory":2,"la1":30.2991,"la2":30.254,"lo1":-89.0895,"lo2":-89.0444,"dy":0.0017,"dx":0.0017,"nx":28,"ny":28,"refTime":"2025-07-10T09:00:00:Z","depth":"0","parameterNumber":3,"parameterNumberName":"V-component_of_CURRENTS"},"data":[0,0,0,0,0,0,0,0,0,0,0,0,0,0,0,0,0,0,0,0,0,0,0,0,0,0,0,0,0,0,0,0,0,0,0,0,0,0,0,0,0,0,0,0,0,0,0,0,0,0,0,0,0,0,0,0,0,0,0.0024,0.0024,0,-0.0047,-0.0047,-0.0048,-0.0101,-0.0102,-0.0102,-0.0103,-0.0169,-0.017,-0.0171,0,0,0,0,0,0,0,0,0,0,0,0,0,0.0078,0.0078,0.0024,0.0023,0.0023,-0.0046,-0.0047,-0.0048,-0.0101,-0.0102,-0.0102,-0.0103,-0.0168,-0.017,-0.0171,0,0,0,0,0,0,0,0,0,0,0,0,0,0.0036,0.0078,0.0024,-0.0012,-0.0016,-0.0046,-0.0047,-0.0049,-0.0101,-0.0102,-0.0102,-0.0103,-0.0168,-0.017,-0.0172,-0.017,0,0,-0.0178,-0.0179,0,0,0,0,0,0,0,0,0.0038,0.0034,-0.0006,-0.001,-0.0014,-0.0066,-0.0053,-0.0089,-0.0101,-0.0069,-0.0103,-0.0103,-0.0133,-0.0138,-0.015,-0.0173,-0.0176,-0.0178,-0.0179,-0.018,-0.018,0,0,0,0,0,0,0,0.0041,0.0036,-0.0004,-0.0007,-0.0012,-0.0037,-0.0044,-0.006,-0.0096,-0.0072,-0.0076,-0.0083,-0.0136,-0.0148,-0.0152,-0.0177,-0.0178,-0.018,-0.0181,-0.0182,-0.0124,-0.0122,0,0,0,0,0,0,0.0053,0.004,-0.0002,-0.0006,0.0011,-0.0037,-0.0045,-0.0048,-0.0096,-0.0104,-0.0082,-0.0085,-0.0144,-0.015,-0.0154,-0.0105,-0.018,-0.0182,-0.0183,-0.0127,-0.0124,-0.0121,0,0,0,0,0,0,0.0055,0.005,0.0001,0.0015,0.0007,-0.0037,-0.0041,-0.0049,-0.006,-0.0105,-0.0113,-0.0084,-0.0145,-0.0152,-0.0152,-0.011,-0.0183,-0.0184,-0.013,-0.0126,-0.0122,-0.0038,0,0,0,0,0,0,0.0056,0.0051,0.0055,0.0016,0.0007,-0.0004,-0.0041,-0.005,-0.0063,-0.0068,-0.0108,-0.0115,-0.0146,-0.0148,-0.0154,-0.0114,-0.0186,-0.0134,-0.0128,-0.0124,-0.0045,-0.0032,-0.0021,0,0,0,0,0,0.0059,0.0066,0.0055,0.005,0.0012,-0.0003,-0.001,-0.0045,-0.0062,-0.0058,-0.0079,-0.0114,-0.0119,-0.0148,-0.0155,-0.0115,-0.0136,-0.013,-0.0124,-0.005,-0.0035,-0.0022,0,0,0,0,0,0,0.0088,0.006,0.0048,0.0046,0.0029,-0.0012,-0.0014,-0.0036,-0.0051,-0.0054,-0.0096,-0.0104,-0.0082,-0.0105,-0.0137,-0.0078,-0.0126,-0.0121,-0.0067,-0.0053,-0.0042,-0.0012,-0.0188,0,0,0,0,0,0.0098,0.01,0.0069,0.007,0.0064,0.0028,0.0017,-0.0002,-0.0024,-0.0032,-0.0056,-0.0067,-0.0061,-0.0065,-0.007,-0.005,-0.0065,-0.002,-0.0008,0.0001,0.0026,0.0048,0.0063,-0.0101,-0.0101,-0.0101,0,0,0.0109,0.0095,0.0095,0.0077,0.0059,0.0064,0.002,0.0013,0.0027,-0.0035,-0.0019,-0.0033,-0.0046,-0.0018,-0.0009,-0.0035,0.0038,0.0009,0.0017,0.0037,0.0056,0.0071,0.0085,-0.0097,-0.0097,-0.0098,0,0,0.0138,0.0122,0.0135,0.0127,0.0109,0.0093,0.0097,0.0069,0.0068,0.0077,0.0053,0.0073,0.0055,0.0072,0.0074,0.0153,0.0099,0.0148,0.0226,0.0247,0.026,0.0271,0.0254,0.0263,0.0153,0.0153,0.0153,0,0.0152,0.0164,0.0138,0.0149,0.0152,0.0114,0.0135,0.0131,0.0111,0.0134,0.0097,0.0134,0.011,0.0177,0.02,0.0181,0.0162,0.0165,0.026,0.0272,0.0282,0.0261,0.027,0.0158,0.0157,0.0157,0.0156,0,0.0189,0.02,0.0208,0.0216,0.0219,0.0228,0.0222,0.0239,0.0231,0.0231,0.0288,0.0269,0.0296,0.0297,0.0262,0.0342,0.0294,0.0269,0.0218,0.0303,0.0276,0.0284,0.0165,0.0163,0.0161,0.016,0,0,0.0218,0.0232,0.0237,0.0261,0.0256,0.0269,0.0309,0.0345,0.0394,0.0387,0.0457,0.0471,0.0463,0.0469,0.0446,0.0462,0.05,0.0395,0.0394,0.0367,0.0514,0.0449,0.0451,0.0478,0.0481,0.0483,0.0457,0,0.0257,0.0304,0.0299,0.0354,0.0379,0.0375,0.0424,0.0456,0.0474,0.0531,0.0544,0.0588,0.0528,0.0546,0.056,0.0517,0.0528,0.0507,0.0447,0.0445,0.0369,0.0462,0.0474,0.045,0.0464,0.0466,0.0466,0,0.0297,0.0327,0.0384,0.0445,0.0458,0.0486,0.0571,0.0608,0.0675,0.0696,0.0744,0.0734,0.0776,0.0705,0.0694,0.0675,0.0612,0.057,0.0567,0.049,0.0397,0.0374,0.0463,0.0431,0.0478,0.0477,0.0476,0,0.0343,0.0393,0.0448,0.046,0.0515,0.0558,0.0595,0.0663,0.0727,0.08,0.0848,0.0881,0.0895,0.0853,0.0746,0.0723,0.0708,0.0665,0.0554,0.0546,0.054,0.0528,0.0589,0.0675,0.0675,0.0675,0.0675,0,0.0388,0.0433,0.0474,0.0502,0.0596,0.0611,0.0719,0.0765,0.0851,0.0942,0.0933,0.0999,0.093,0.0899,0.0802,0.0698,0.0751,0.0596,0.0557,0.0566,0.0558,0.0513,0.048,0.0674,0.0674,0.0674,0.0674,0,0.0427,0.0447,0.0517,0.0586,0.0616,0.0682,0.0789,0.0873,0.093,0.1047,0.1075,0.1095,0.1042,0.0948,0.0863,0.0762,0.0645,0.0619,0.0611,0.0573,0.0437,0.0406,0.0406,0.0392,0.0515,0.0514,0.0513,0,0.0449,0.0485,0.0576,0.0631,0.066,0.0756,0.0836,0.0915,0.1003,0.1104,0.1171,0.1149,0.1148,0.0988,0.0815,0.0653,0.0599,0.0542,0.0519,0.0461,0.04,0.0379,0.0367,0.0533,0.0532,0.0531,0.053,0,0.0493,0.0521,0.0581,0.0693,0.0775,0.0881,0.0987,0.1071,0.1166,0.1247,0.1322,0.1321,0.116,0.1008,0.0768,0.0648,0.0529,0.0518,0.0493,0.0461,0.0415,0.0371,0.0482,0.0524,0.0524,0.0525,0.0525,0.0525,0.0525,0.0576,0.0652,0.0761,0.086,0.0982,0.1076,0.1185,0.1312,0.143,0.1416,0.1423,0.1205,0.0883,0.0723,0.0456,0.0458,0.039,0.0366,0.0357,0.0338,0.041,0.0381,0.0381,0.0381,0.0381,0.0381,0,0.0561,0.062,0.0719,0.0844,0.0952,0.1002,0.1166,0.126,0.1394,0.1481,0.1528,0.1414,0.1164,0.0895,0.053,0.0363,0.0319,0.0277,0.0293,0.0293,0.0397,0.0393,0.0327,0.0327,0.0327,0.0327,0.0327,0.0327,0.0582,0.0667,0.0717,0.0887,0.0982,0.1128,0.1221,0.1358,0.1454,0.154,0.1538,0.1518,0.1311,0.0738,0.0387,0.0299,0.023,0.0173,0.0143,0.0246,0.0256,0.0266,0.0259,0.0166,0.0165,0.008,0.0079,0.0079]}],[{"header":{"parameterUnit":"m.s-1","parameterCategory":2,"la1":30.2991,"la2":30.254,"lo1":-89.0895,"lo2":-89.0444,"dy":0.0017,"dx":0.0017,"nx":28,"ny":28,"refTime":"2025-07-10T09:00:00:Z","depth":"2","parameterNumber":2,"parameterNumberName":"U-component_of_CURRENTS"},"data":[0,0,0,0,0,0,0,0,0,0,0,0,0,0,0,0,0,0,0,0,0,0,0,0,0,0,0,0,0,0,0,0,0,0,0,0,0,0,0,0,0,0,0,0,0,0,0,0,0,0,0,0,0,0,0,0,0,0,0.2054,0.2055,0,0.2096,0.2096,0.2096,0.2045,0.2043,0.2042,0.2041,0.2132,0.2136,0.214,0,0,0,0,0,0,0,0,0,0,0,0,0,0.2016,0.2016,0.2054,0.2055,0.2056,0.2096,0.2096,0.2096,0.2045,0.2043,0.2042,0.204,0.2131,0.2136,0.214,0,0,0,0,0,0,0,0,0,0,0,0,0,0.2038,0.2016,0.2054,0.2039,0.2039,0.2096,0.2096,0.2096,0.2045,0.2043,0.2041,0.2039,0.213,0.2135,0.2141,0.2219,0,0,0.2158,0.2161,0,0,0,0,0,0,0,0,0.2036,0.2038,0.204,0.204,0.204,0.2067,0.2116,0.2142,0.2046,0.2038,0.204,0.2038,0.212,0.2126,0.2131,0.2223,0.2227,0.2159,0.2162,0.2164,0.2166,0,0,0,0,0,0,0,0.2035,0.2037,0.2066,0.2042,0.2041,0.206,0.2059,0.2121,0.2088,0.2038,0.2036,0.2049,0.2119,0.2126,0.2133,0.2229,0.2158,0.2163,0.2167,0.2169,0.2559,0.2565,0,0,0,0,0,0,0.2037,0.2035,0.2065,0.2068,0.2038,0.2062,0.2061,0.2057,0.2086,0.2089,0.2051,0.2047,0.2117,0.2127,0.2137,0.2256,0.2164,0.217,0.2173,0.2552,0.256,0.2568,0,0,0,0,0,0,0.2036,0.2039,0.2063,0.2057,0.2062,0.2065,0.206,0.2059,0.2078,0.2096,0.2098,0.2073,0.2116,0.2129,0.2277,0.2258,0.2172,0.2177,0.2544,0.2554,0.2564,0.2481,0,0,0,0,0,0,0.2034,0.2038,0.204,0.2057,0.2063,0.2108,0.2063,0.2061,0.2091,0.2086,0.2117,0.2122,0.2115,0.2269,0.2283,0.2265,0.2182,0.2535,0.2548,0.2561,0.2475,0.2487,0.2498,0,0,0,0,0,0.2033,0.2041,0.204,0.2044,0.2063,0.2111,0.2116,0.2107,0.2095,0.2114,0.2192,0.2121,0.236,0.2281,0.2295,0.2277,0.2529,0.2545,0.256,0.247,0.2485,0.2497,0,0,0,0,0,0,0.2026,0.2038,0.2036,0.2047,0.2085,0.2104,0.2121,0.2131,0.2201,0.2203,0.2221,0.2236,0.2329,0.2388,0.23,0.2453,0.2429,0.2448,0.2356,0.237,0.2382,0.2356,0.2187,0,0,0,0,0,0.2029,0.2035,0.2064,0.2079,0.2095,0.2118,0.2139,0.2141,0.2203,0.2225,0.2259,0.2337,0.2407,0.2459,0.2516,0.2631,0.2619,0.2644,0.2655,0.2663,0.2671,0.2681,0.2688,0.2619,0.2619,0.2619,0,0,0.2032,0.2042,0.2045,0.2079,0.2098,0.2133,0.2123,0.2161,0.219,0.2234,0.2302,0.2358,0.2453,0.2543,0.2593,0.2588,0.2681,0.2683,0.2686,0.269,0.2697,0.2701,0.2705,0.263,0.2628,0.2626,0,0,0.2049,0.205,0.2065,0.2093,0.2135,0.2157,0.2179,0.222,0.2233,0.2345,0.2363,0.2452,0.2578,0.2616,0.2662,0.2808,0.2721,0.283,0.2867,0.2876,0.2877,0.2878,0.2834,0.2832,0.2855,0.2855,0.2855,0,0.2055,0.2068,0.2084,0.2109,0.2137,0.2173,0.221,0.2239,0.2328,0.2367,0.2369,0.2554,0.26,0.2709,0.2756,0.2807,0.2799,0.2767,0.2872,0.2874,0.2876,0.2831,0.283,0.2853,0.2853,0.2853,0.2853,0,0.2076,0.2095,0.2112,0.2147,0.2188,0.2226,0.2272,0.2321,0.2359,0.2395,0.2505,0.2595,0.2708,0.2729,0.2784,0.2847,0.2825,0.2841,0.2785,0.2874,0.2827,0.2825,0.285,0.285,0.2851,0.2852,0,0,0.2064,0.2115,0.2119,0.2141,0.2207,0.224,0.2308,0.2385,0.2425,0.2505,0.2564,0.2694,0.2727,0.2794,0.2844,0.2874,0.2855,0.2879,0.288,0.2745,0.2836,0.2692,0.2677,0.287,0.2871,0.2872,0.2776,0,0.2079,0.2119,0.2152,0.221,0.2238,0.2295,0.235,0.2421,0.2489,0.2552,0.2632,0.2711,0.2754,0.2803,0.2839,0.2856,0.2861,0.2878,0.2854,0.2853,0.2638,0.2675,0.2502,0.2392,0.2775,0.2775,0.2775,0,0.2083,0.2112,0.2163,0.2228,0.2246,0.2296,0.239,0.2446,0.2545,0.259,0.2688,0.2738,0.2821,0.2828,0.2871,0.2879,0.2865,0.286,0.2856,0.2752,0.271,0.239,0.2376,0.2773,0.2773,0.2773,0.2774,0,0.2048,0.2117,0.2157,0.2177,0.2262,0.2309,0.2368,0.2469,0.2511,0.262,0.2651,0.2755,0.2787,0.2817,0.2825,0.2852,0.2814,0.2843,0.2692,0.2679,0.2545,0.2519,0.2849,0.2849,0.2849,0.2849,0.285,0,0.2039,0.2066,0.2145,0.216,0.2211,0.2289,0.2365,0.2426,0.2517,0.2552,0.2668,0.2691,0.2788,0.2786,0.2801,0.2719,0.2791,0.2684,0.2651,0.2515,0.2489,0.2855,0.2857,0.2846,0.2847,0.2847,0.2848,0,0.1991,0.204,0.2079,0.2165,0.2194,0.2233,0.2337,0.2375,0.2473,0.2517,0.2546,0.2632,0.2632,0.2675,0.2686,0.265,0.2611,0.2561,0.2365,0.2311,0.2475,0.2476,0.239,0.2384,0.2379,0.2375,0.2372,0,0.1972,0.1989,0.2056,0.207,0.2115,0.219,0.2224,0.2337,0.2371,0.2462,0.245,0.2489,0.2481,0.2423,0.2384,0.2332,0.2458,0.2114,0.2149,0.2454,0.2431,0.244,0.2448,0.1932,0.1925,0.192,0.1915,0,0.1936,0.1957,0.1984,0.2007,0.2044,0.2077,0.2141,0.2154,0.2264,0.228,0.2273,0.2279,0.2242,0.2106,0.2038,0.2003,0.2116,0.1996,0.2367,0.2073,0.2014,0.1995,0.2019,0.1866,0.1871,0.1875,0.1877,0.1879,0.1903,0.1897,0.1924,0.1935,0.196,0.1951,0.1943,0.199,0.1997,0.1995,0.2059,0.1987,0.1977,0.1786,0.1692,0.1621,0.1788,0.1721,0.1742,0.1768,0.173,0.1666,0.1442,0.1445,0.1447,0.1449,0.145,0,0.1852,0.1842,0.1847,0.1838,0.1808,0.1864,0.186,0.182,0.1765,0.1782,0.1761,0.157,0.1451,0.1451,0.1259,0.1213,0.1261,0.1168,0.1234,0.1282,0.1325,0.127,0.0857,0.0856,0.0854,0.0852,0,0,0.1826,0.1794,0.1777,0.1696,0.1685,0.1615,0.1588,0.1525,0.1505,0.1415,0.1354,0.1432,0.1423,0.1148,0.1081,0.0938,0.1121,0.09,0.1376,0.1506,0.1547,0.1635,0.1602,0,0,0,0,0]},{"header":{"parameterUnit":"m.s-1","parameterCategory":2,"la1":30.2991,"la2":30.254,"lo1":-89.0895,"lo2":-89.0444,"dy":0.0017,"dx":0.0017,"nx":28,"ny":28,"refTime":"2025-07-10T09:00:00:Z","depth":"2","parameterNumber":3,"parameterNumberName":"V-component_of_CURRENTS"},"data":[0,0,0,0,0,0,0,0,0,0,0,0,0,0,0,0,0,0,0,0,0,0,0,0,0,0,0,0,0,0,0,0,0,0,0,0,0,0,0,0,0,0,0,0,0,0,0,0,0,0,0,0,0,0,0,0,0,0,0.0048,0.0047,0,0.003,0.003,0.003,0.0017,0.0016,0.0016,0.0016,-0.0016,-0.0017,-0.0017,0,0,0,0,0,0,0,0,0,0,0,0,0,0.0081,0.008,0.0048,0.0047,0.0047,0.003,0.003,0.003,0.0017,0.0016,0.0016,0.0015,-0.0016,-0.0017,-0.0017,0,0,0,0,0,0,0,0,0,0,0,0,0,0.0068,0.008,0.0048,0.0036,0.0035,0.003,0.003,0.003,0.0017,0.0016,0.0016,0.0015,-0.0016,-0.0016,-0.0017,-0.0011,0,0,-0.0019,-0.002,0,0,0,0,0,0,0,0,0.0068,0.0067,0.0038,0.0037,0.0035,0.0023,0.003,0.0015,0.0017,0.0026,0.0016,0.0015,-0.0006,-0.0007,-0.0005,-0.0012,-0.0013,-0.002,-0.002,-0.002,-0.0021,0,0,0,0,0,0,0,0.0069,0.0067,0.0044,0.0038,0.0036,0.0035,0.0033,0.0028,0.0016,0.0026,0.0024,0.0018,-0.0006,-0.0005,-0.0006,-0.0014,-0.002,-0.002,-0.0021,-0.0021,0.0019,0.002,0,0,0,0,0,0,0.0066,0.0068,0.0044,0.0043,0.0048,0.0035,0.0033,0.003,0.0016,0.0013,0.0018,0.0017,-0.0003,-0.0005,-0.0008,0.0038,-0.002,-0.0021,-0.0021,0.0017,0.0019,0.0021,0,0,0,0,0,0,0.0067,0.0064,0.0045,0.0053,0.005,0.0035,0.0032,0.0029,0.0029,0.001,0.0007,0.002,-0.0004,-0.0007,-0.0017,0.0035,-0.0021,-0.0022,0.0015,0.0018,0.002,0.0104,0,0,0,0,0,0,0.0068,0.0065,0.0068,0.0053,0.0049,0.0052,0.0032,0.0029,0.0025,0.0024,0.001,0.0007,-0.0004,-0.0015,-0.0017,0.0033,-0.0023,0.0013,0.0016,0.0019,0.0099,0.0108,0.0116,0,0,0,0,0,0.0069,0.0077,0.0069,0.0066,0.0052,0.0053,0.0052,0.0041,0.0026,0.0037,0.0016,0.0007,0.0002,-0.0016,-0.0018,0.0033,0.0012,0.0016,0.0019,0.0095,0.0107,0.0116,0,0,0,0,0,0,0.0093,0.0075,0.0066,0.0067,0.0064,0.005,0.0056,0.0043,0.0036,0.0033,0.0009,0.0005,0.0027,0.0008,-0.0011,0.0053,0.0014,0.0017,0.0072,0.0083,0.0092,0.0111,-0.0023,0,0,0,0,0,0.0098,0.0101,0.0084,0.0087,0.0086,0.0071,0.0069,0.0063,0.005,0.0047,0.0036,0.003,0.0041,0.004,0.0045,0.0062,0.0038,0.0099,0.0108,0.0116,0.013,0.0125,0.0135,0.0032,0.0032,0.0032,0,0,0.0108,0.0099,0.01,0.0093,0.0088,0.0106,0.007,0.0074,0.01,0.0044,0.0072,0.0059,0.0052,0.0084,0.0093,0.0071,0.013,0.012,0.0126,0.0137,0.0129,0.0139,0.0148,0.0034,0.0034,0.0033,0,0,0.0134,0.0121,0.0135,0.0137,0.0133,0.0131,0.0133,0.0124,0.0133,0.0147,0.0128,0.0135,0.0139,0.0153,0.0158,0.0215,0.0179,0.0222,0.028,0.0275,0.0284,0.0291,0.0262,0.0265,0.0224,0.0224,0.0224,0,0.0147,0.0161,0.0141,0.0159,0.017,0.0146,0.0175,0.0185,0.0178,0.0194,0.0169,0.0196,0.0183,0.0234,0.0255,0.024,0.0213,0.024,0.0287,0.0293,0.0299,0.0267,0.0271,0.0228,0.0228,0.0227,0.0227,0,0.0185,0.0201,0.0211,0.0231,0.0243,0.0262,0.027,0.0294,0.0294,0.0296,0.0337,0.0318,0.0333,0.034,0.0312,0.0364,0.0322,0.0299,0.0259,0.0314,0.0277,0.0279,0.0235,0.0233,0.0232,0.0231,0,0,0.0206,0.0233,0.0239,0.0267,0.0283,0.0302,0.0355,0.0394,0.0433,0.0434,0.0481,0.0499,0.0474,0.0479,0.0454,0.0448,0.0458,0.0391,0.0389,0.0362,0.0424,0.0391,0.0388,0.0435,0.0436,0.0437,0.0377,0,0.0245,0.0298,0.0302,0.0369,0.0401,0.041,0.0467,0.05,0.0514,0.0553,0.055,0.0577,0.0533,0.0539,0.0532,0.0477,0.0468,0.0475,0.0376,0.0373,0.0336,0.0392,0.0395,0.0342,0.0379,0.0379,0.0379,0,0.0286,0.0319,0.0383,0.0454,0.047,0.0508,0.059,0.0634,0.0678,0.0689,0.0706,0.0685,0.0694,0.064,0.0589,0.0588,0.0521,0.0471,0.0467,0.0411,0.0344,0.0296,0.0343,0.0381,0.0381,0.0381,0.0381,0,0.0319,0.0383,0.044,0.0459,0.0529,0.0574,0.0618,0.0673,0.0727,0.0764,0.0788,0.0785,0.0781,0.0717,0.0609,0.0597,0.0529,0.0497,0.0408,0.0403,0.0377,0.0368,0.047,0.0471,0.0471,0.0471,0.0471,0,0.0363,0.0411,0.0461,0.0493,0.0588,0.0616,0.0713,0.0755,0.0815,0.0877,0.0852,0.0883,0.0797,0.0743,0.0642,0.0529,0.0554,0.0435,0.0399,0.0404,0.0399,0.041,0.0404,0.0469,0.0469,0.0469,0.047,0,0.0392,0.0419,0.0493,0.057,0.0603,0.0669,0.0775,0.0843,0.0882,0.0958,0.0973,0.0957,0.0881,0.0778,0.066,0.057,0.0465,0.0416,0.0414,0.0381,0.0331,0.033,0.0324,0.0323,0.0322,0.0321,0.032,0,0.0412,0.0448,0.0544,0.0597,0.0633,0.073,0.0806,0.0877,0.0942,0.0999,0.1037,0.0988,0.096,0.0774,0.0615,0.0451,0.0434,0.0338,0.0332,0.0357,0.0323,0.0323,0.0324,0.0317,0.0317,0.0316,0.0316,0,0.0451,0.0478,0.054,0.0646,0.0727,0.083,0.0928,0.0994,0.1071,0.1113,0.1138,0.1113,0.0946,0.0782,0.0563,0.0448,0.0369,0.032,0.036,0.0357,0.0347,0.0314,0.0316,0.031,0.0311,0.0311,0.0311,0.0311,0.0478,0.0525,0.06,0.0703,0.0799,0.091,0.0995,0.1082,0.1174,0.1235,0.1202,0.1148,0.0978,0.069,0.0505,0.0312,0.033,0.0255,0.0259,0.0263,0.0276,0.0265,0.0213,0.0213,0.0213,0.0213,0.0213,0,0.051,0.0563,0.0655,0.0773,0.0872,0.0924,0.1065,0.1137,0.1225,0.1259,0.1262,0.1067,0.0887,0.0686,0.0404,0.0242,0.0236,0.0177,0.0212,0.0219,0.0224,0.0237,0.0163,0.0162,0.0162,0.0161,0,0,0.0529,0.0607,0.065,0.0805,0.0892,0.1025,0.1104,0.1197,0.1249,0.1266,0.1223,0.1177,0.0933,0.0718,0.0498,0.0333,0.0313,0.0292,0.0349,0.0425,0.0432,0.0284,0.0311,0,0,0,0,0]}],[{"header":{"parameterUnit":"m.s-1","parameterCategory":2,"la1":30.2991,"la2":30.254,"lo1":-89.0895,"lo2":-89.0444,"dy":0.0017,"dx":0.0017,"nx":28,"ny":28,"refTime":"2025-07-10T09:00:00:Z","depth":"4","parameterNumber":2,"parameterNumberName":"U-component_of_CURRENTS"},"data":[0,0,0,0,0,0,0,0,0,0,0,0,0,0,0,0,0,0,0,0,0,0,0,0,0,0,0,0,0,0,0,0,0,0,0,0,0,0,0,0,0,0,0,0,0,0,0,0,0,0,0,0,0,0,0,0,0,0,0.1105,0.1103,0,0.0979,0.0978,0.0976,0.0918,0.0918,0.0918,0.0918,0.0831,0.0829,0.0827,0,0,0,0,0,0,0,0,0,0,0,0,0,0.1205,0.1204,0.1105,0.1103,0.1102,0.098,0.0978,0.0976,0.0918,0.0918,0.0918,0.0918,0.0832,0.0829,0.0826,0,0,0,0,0,0,0,0,0,0,0,0,0,0.1129,0.1203,0.1105,0.1058,0.1052,0.098,0.0978,0.0976,0.0917,0.0918,0.0918,0.0918,0.0833,0.0829,0.0826,0.0801,0,0,0.0815,0.0813,0,0,0,0,0,0,0,0,0.1133,0.1125,0.1066,0.1061,0.1055,0.0964,0.0981,0.0919,0.0917,0.0969,0.0918,0.0918,0.0879,0.0872,0.0847,0.0797,0.0793,0.0815,0.0812,0.0811,0.081,0,0,0,0,0,0,0,0.1139,0.113,0.1055,0.1065,0.1057,0.1012,0.1003,0.0969,0.0925,0.0964,0.096,0.0946,0.0876,0.0851,0.0845,0.0792,0.0815,0.0812,0.0809,0.0808,0.0702,0.0701,0,0,0,0,0,0,0.1159,0.1135,0.1059,0.1051,0.1095,0.1011,0.1,0.0993,0.0925,0.0914,0.0946,0.0943,0.0857,0.0849,0.0842,0.0894,0.0811,0.0808,0.0806,0.0703,0.0702,0.0701,0,0,0,0,0,0,0.1161,0.1153,0.1064,0.109,0.1075,0.101,0.1002,0.0991,0.0998,0.091,0.0901,0.0969,0.0857,0.0847,0.0823,0.0887,0.0806,0.0803,0.0703,0.0702,0.0702,0.0944,0,0,0,0,0,0,0.1165,0.1155,0.1172,0.1092,0.1075,0.1036,0.1002,0.0988,0.0987,0.0983,0.0926,0.0916,0.0856,0.0828,0.0819,0.0881,0.08,0.0704,0.0703,0.0702,0.0937,0.0951,0.0964,0,0,0,0,0,0.1169,0.1175,0.1173,0.1164,0.1095,0.1036,0.1024,0.0976,0.0989,0.0987,0.0948,0.0919,0.0813,0.0826,0.0815,0.0877,0.0705,0.0703,0.0702,0.0931,0.0949,0.0964,0,0,0,0,0,0,0.1215,0.1167,0.1164,0.1154,0.1112,0.1027,0.1018,0.1007,0.0976,0.0985,0.0922,0.0908,0.0928,0.0838,0.0853,0.0828,0.075,0.0746,0.0927,0.0943,0.0957,0.0941,0.0797,0,0,0,0,0,0.1239,0.1243,0.118,0.1179,0.116,0.1108,0.1088,0.1062,0.1016,0.1005,0.097,0.0919,0.0905,0.0875,0.084,0.0818,0.0781,0.0837,0.0851,0.0863,0.0834,0.089,0.091,0.0696,0.0696,0.0696,0,0,0.1256,0.1233,0.1235,0.1192,0.1155,0.1122,0.1096,0.1074,0.1062,0.1001,0.0993,0.0993,0.0915,0.0912,0.0906,0.0847,0.0899,0.0861,0.0875,0.0836,0.0891,0.0913,0.0932,0.0695,0.0695,0.0696,0,0,0.1266,0.1273,0.1266,0.1233,0.1192,0.1161,0.1172,0.1116,0.1111,0.1102,0.1079,0.1102,0.1038,0.1009,0.0984,0.1033,0.1001,0.1026,0.1061,0.112,0.114,0.1157,0.1144,0.1158,0.0999,0.1,0.1,0,0.1291,0.1268,0.1254,0.1224,0.12,0.1189,0.1162,0.1151,0.1105,0.1121,0.1118,0.1113,0.1081,0.109,0.1105,0.1077,0.1076,0.1034,0.1149,0.1165,0.1179,0.116,0.1173,0.1011,0.101,0.1008,0.1007,0,0.127,0.1259,0.1248,0.1219,0.12,0.1178,0.1152,0.1171,0.1197,0.1196,0.125,0.1222,0.1209,0.1227,0.1183,0.1256,0.1216,0.1209,0.1138,0.1217,0.1189,0.1199,0.1027,0.1023,0.102,0.1017,0,0,0.1293,0.1245,0.1244,0.1221,0.1196,0.1169,0.119,0.1196,0.1237,0.1254,0.1299,0.132,0.1352,0.1317,0.1305,0.1335,0.146,0.1311,0.1308,0.1346,0.1558,0.1437,0.1433,0.1514,0.1516,0.1518,0.1505,0,0.1277,0.1229,0.1217,0.1183,0.1146,0.116,0.1182,0.1207,0.1251,0.1299,0.1335,0.1382,0.137,0.1406,0.1447,0.146,0.1491,0.1459,0.1425,0.1421,0.135,0.1443,0.1527,0.1512,0.1513,0.1515,0.1516,0,0.1246,0.1217,0.1184,0.1161,0.1154,0.1161,0.1214,0.1227,0.1311,0.1358,0.1428,0.146,0.1507,0.1503,0.1561,0.1553,0.1563,0.1567,0.1568,0.1364,0.1318,0.1402,0.1531,0.153,0.1529,0.1528,0.1527,0,0.1243,0.1191,0.1175,0.1157,0.1144,0.1171,0.1193,0.1269,0.1305,0.1408,0.1463,0.1533,0.157,0.1618,0.162,0.1621,0.1674,0.1673,0.1559,0.1547,0.1557,0.1538,0.1728,0.1728,0.1728,0.1729,0.1729,0,0.121,0.119,0.1179,0.1161,0.1171,0.1175,0.1232,0.128,0.1368,0.1421,0.1498,0.1538,0.1617,0.1647,0.1651,0.1614,0.1704,0.1563,0.1552,0.1651,0.1643,0.1564,0.1545,0.1728,0.1728,0.1728,0.1728,0,0.1195,0.1187,0.1156,0.1157,0.1164,0.1178,0.1233,0.127,0.1374,0.1442,0.1482,0.1567,0.161,0.1641,0.1695,0.163,0.1623,0.1589,0.1652,0.1644,0.144,0.1433,0.1457,0.1453,0.145,0.1447,0.1445,0,0.1173,0.1162,0.1159,0.1148,0.1152,0.1177,0.1196,0.1275,0.1312,0.1438,0.1454,0.1538,0.158,0.1529,0.1583,0.1567,0.1554,0.1513,0.1508,0.1434,0.1421,0.1419,0.1417,0.1439,0.1438,0.1437,0.1437,0,0.113,0.1159,0.1144,0.1131,0.1133,0.112,0.1156,0.1175,0.1269,0.1372,0.1403,0.142,0.1447,0.1461,0.1456,0.1448,0.1523,0.1477,0.1484,0.1479,0.1412,0.1402,0.1404,0.1425,0.1426,0.1428,0.1428,0,0.1117,0.1108,0.1111,0.1085,0.1088,0.1052,0.1071,0.1089,0.1133,0.1274,0.1278,0.1356,0.144,0.1398,0.1397,0.1377,0.1357,0.1294,0.131,0.1324,0.1287,0.1182,0.1118,0,0,0,0,0,0.1079,0.1063,0.1048,0.1003,0.1009,0.1004,0.1034,0.1059,0.1152,0.1142,0.1214,0.124,0.1245,0.1275,0.1228,0.1326,0.1354,0.1261,0.1289,0.1359,0.1373,0.1341,0,0,0,0,0,0,0.1048,0.105,0.1028,0.0947,0.0911,0.0892,0.0904,0.0955,0.0955,0.1067,0.1076,0.1162,0.1184,0.1277,0.1211,0.1219,0.1203,0.1315,0.131,0.1351,0.1364,0.1375,0.1347,0,0,0,0,0]},{"header":{"parameterUnit":"m.s-1","parameterCategory":2,"la1":30.2991,"la2":30.254,"lo1":-89.0895,"lo2":-89.0444,"dy":0.0017,"dx":0.0017,"nx":28,"ny":28,"refTime":"2025-07-10T09:00:00:Z","depth":"4","parameterNumber":3,"parameterNumberName":"V-component_of_CURRENTS"},"data":[0,0,0,0,0,0,0,0,0,0,0,0,0,0,0,0,0,0,0,0,0,0,0,0,0,0,0,0,0,0,0,0,0,0,0,0,0,0,0,0,0,0,0,0,0,0,0,0,0,0,0,0,0,0,0,0,0,0,0.0088,0.0088,0,0.0139,0.014,0.0141,0.0169,0.0169,0.0168,0.0168,0.0225,0.0226,0.0228,0,0,0,0,0,0,0,0,0,0,0,0,0,0.0084,0.0083,0.0088,0.0088,0.0088,0.0139,0.014,0.0141,0.0169,0.0169,0.0168,0.0168,0.0224,0.0226,0.0228,0,0,0,0,0,0,0,0,0,0,0,0,0,0.0109,0.0083,0.0088,0.0105,0.0107,0.0139,0.014,0.0142,0.0169,0.0169,0.0168,0.0168,0.0223,0.0226,0.0229,0.0256,0,0,0.0237,0.0238,0,0,0,0,0,0,0,0,0.0108,0.011,0.0102,0.0104,0.0106,0.0143,0.0159,0.0179,0.0169,0.015,0.0168,0.0167,0.0195,0.02,0.0218,0.0259,0.0261,0.0237,0.0239,0.024,0.0241,0,0,0,0,0,0,0,0.0106,0.0108,0.0113,0.0102,0.0104,0.0134,0.0137,0.0164,0.0179,0.0152,0.0153,0.0152,0.0197,0.0215,0.0219,0.0262,0.0237,0.024,0.0241,0.0243,0.0288,0.0287,0,0,0,0,0,0,0.0087,0.0106,0.0111,0.0114,0.01,0.0134,0.0137,0.0135,0.0178,0.0183,0.0152,0.0153,0.021,0.0216,0.0221,0.0246,0.024,0.0243,0.0244,0.0288,0.0288,0.0287,0,0,0,0,0,0,0.0087,0.0087,0.0109,0.0108,0.0112,0.0133,0.0132,0.0136,0.0155,0.0177,0.0183,0.0164,0.021,0.0217,0.0246,0.0249,0.0244,0.0247,0.0289,0.0288,0.0288,0.0302,0,0,0,0,0,0,0.0087,0.0087,0.009,0.0106,0.0111,0.0134,0.0132,0.0138,0.0152,0.0154,0.019,0.0195,0.021,0.0242,0.0249,0.0252,0.0249,0.0289,0.0289,0.0288,0.0302,0.0302,0.0302,0,0,0,0,0,0.0087,0.0093,0.009,0.0091,0.0111,0.0135,0.0141,0.0158,0.0153,0.0171,0.0187,0.0194,0.0241,0.0245,0.0253,0.0257,0.029,0.0289,0.0288,0.0302,0.0302,0.0302,0,0,0,0,0,0,0.0097,0.0096,0.0094,0.01,0.0116,0.0138,0.0155,0.0159,0.0187,0.019,0.0204,0.0211,0.023,0.0241,0.0244,0.0262,0.026,0.026,0.0268,0.0268,0.0268,0.028,0.0251,0,0,0,0,0,0.0097,0.0101,0.0106,0.0115,0.0121,0.0137,0.015,0.0161,0.018,0.0192,0.0211,0.0225,0.0234,0.0249,0.0262,0.0289,0.0276,0.0288,0.0288,0.0288,0.0301,0.0273,0.0272,0.0284,0.0284,0.0284,0,0,0.0104,0.0104,0.0106,0.0117,0.0132,0.0158,0.0146,0.0169,0.0194,0.0194,0.0235,0.023,0.0238,0.0259,0.0268,0.0271,0.0275,0.0287,0.0287,0.03,0.0272,0.0271,0.027,0.0283,0.0283,0.0284,0,0,0.0123,0.0118,0.0131,0.0147,0.0164,0.0177,0.0181,0.0203,0.0216,0.0251,0.024,0.0236,0.0274,0.0269,0.0273,0.028,0.0271,0.0276,0.0298,0.0271,0.027,0.0269,0.0243,0.024,0.0282,0.0282,0.0282,0,0.0132,0.0147,0.0142,0.0164,0.0183,0.0185,0.0215,0.0233,0.0262,0.0266,0.0267,0.0276,0.0279,0.0283,0.0282,0.0282,0.0266,0.0302,0.0272,0.0271,0.027,0.0243,0.0239,0.0283,0.0283,0.0282,0.0282,0,0.0164,0.0182,0.0195,0.0221,0.0241,0.0269,0.0284,0.0305,0.0313,0.0316,0.032,0.0316,0.0318,0.0306,0.0306,0.0291,0.0281,0.027,0.0276,0.027,0.0242,0.0237,0.0283,0.0283,0.0283,0.0283,0,0,0.0172,0.0209,0.0216,0.0241,0.0274,0.0297,0.0332,0.0355,0.0369,0.0377,0.0384,0.0378,0.0354,0.0354,0.0332,0.0311,0.028,0.0295,0.0293,0.0275,0.0221,0.0229,0.0225,0.0264,0.0264,0.0264,0.0201,0,0.0204,0.0252,0.0264,0.0325,0.0354,0.0369,0.0404,0.0422,0.0424,0.0431,0.04,0.0402,0.0379,0.0374,0.0346,0.0298,0.0271,0.0298,0.0224,0.0222,0.0236,0.0221,0.0262,0.0198,0.0197,0.0196,0.0196,0,0.0236,0.0265,0.0322,0.0378,0.0392,0.043,0.0472,0.0503,0.0499,0.0496,0.0475,0.0448,0.0417,0.0395,0.0319,0.0338,0.0287,0.0245,0.0241,0.0246,0.0223,0.0206,0.0188,0.0189,0.0189,0.019,0.019,0,0.0249,0.031,0.0356,0.0377,0.0437,0.0468,0.0504,0.0519,0.0544,0.0531,0.0531,0.0484,0.0468,0.0399,0.0323,0.0319,0.0234,0.0212,0.0168,0.0167,0.0173,0.0175,0.0155,0.0155,0.0155,0.0156,0.0156,0,0.0278,0.0319,0.037,0.0398,0.0464,0.0496,0.0553,0.0571,0.059,0.0609,0.0565,0.0559,0.0469,0.041,0.0332,0.0246,0.024,0.0175,0.0154,0.0178,0.0182,0.0169,0.0172,0.0153,0.0154,0.0154,0.0155,0,0.029,0.032,0.038,0.0446,0.0472,0.0522,0.06,0.0631,0.0646,0.0666,0.0667,0.0616,0.0545,0.0451,0.0335,0.0267,0.0177,0.0146,0.0187,0.0169,0.0122,0.0125,0.0082,0.0082,0.0082,0.0082,0.0082,0,0.03,0.033,0.041,0.0451,0.0487,0.0561,0.0611,0.0656,0.0686,0.0699,0.0704,0.065,0.0603,0.0447,0.0347,0.0202,0.0179,0.0124,0.0116,0.0131,0.0115,0.0119,0.0123,0.0081,0.0081,0.0081,0.0081,0,0.032,0.0348,0.0397,0.0475,0.0537,0.0608,0.0678,0.0704,0.0748,0.0754,0.0732,0.0655,0.0574,0.0452,0.0349,0.0241,0.0154,0.0121,0.012,0.0112,0.0129,0.0114,0.0118,0.0081,0.0081,0.0081,0.0081,0,0.0334,0.0369,0.0429,0.0501,0.0574,0.0638,0.0678,0.072,0.0754,0.0764,0.0754,0.0668,0.062,0.0473,0.0375,0.0278,0.0241,0.0188,0.0183,0.0182,0.0232,0.027,0.0249,0,0,0,0,0,0.0347,0.0384,0.045,0.0528,0.0599,0.0644,0.0715,0.0746,0.0778,0.0766,0.0766,0.0691,0.0549,0.0487,0.0391,0.0363,0.0222,0.0245,0.0158,0.0078,0.0078,0.0121,0,0,0,0,0,0,0.0355,0.0413,0.0446,0.0534,0.059,0.067,0.0717,0.0743,0.074,0.0751,0.0681,0.065,0.0517,0.0605,0.0383,0.0355,0.0281,0.0184,0.0182,0.0077,0.0078,0.0079,0.0123,0,0,0,0,0]}]]